User: anonymous   Login
Location: ???? ??????? ????
(31.2176°N, 31.6797°E)
Time: 02:51:25
(UTC+00:00)
Language:

Cosmos 1553 Rocket - Orbit

View from above orbital plane
View from above orbital plane
View from above satellite
View from above satellite

Ground track
Ground track

The orbit data is extracted from the following two-line orbital elements,

1 14974U 84046B   21015.37570578  .00000105  00000-0  91224-4 0  9996
2 14974  82.9345 249.0129 0044105 301.1276 232.7973 13.76940978841986
Epoch (UTC): 15 January 2021 09:01:00
Eccentricity: 0.0044105
inclination: 82.9345°
perigee height: 942 km
apogee height: 1007 km
right ascension of ascending node: 249.0129°
argument of perigee: 301.1276°
revolutions per day: 13.76940978
mean anomaly at epoch: 232.7973°
orbit number at epoch: 84198

The dashed part of the orbit path shows where the satellite is in the earth's shadow,  

DLR